This is the latest recevied weather packets stored in our database for station/object ON3FV. If no packets are shown the sender has not sent any weather packets the latest 10 day(s).
| Time | Temp. | Humidity | Pressure | Rain* | Wind** | Luminosity | Snow |
|---|---|---|---|---|---|---|---|
| 1778262736 | 18.33° C | 62% | 1015.4 hPa | - | - | - | - |
| 1778261251 | 18.33° C | 61% | 1015.3 hPa | - | - | - | - |
| 1778259124 | 18.33° C | 63% | 1015.2 hPa | - | - | - | - |
| 1778255512 | 18.89° C | 60% | 1015.1 hPa | - | - | - | - |
| 1778254308 | 19.44° C | 62% | 1015.2 hPa | - | - | - | - |
| 1778254008 | 18.89° C | 61% | 1015.3 hPa | - | - | - | - |
| 1778251299 | 18.89° C | 59% | 1015.5 hPa | - | - | - | - |
| 1778250697 | 18.89° C | 58% | 1015.5 hPa | - | - | - | - |
| 1778250396 | 18.89° C | 59% | 1015.6 hPa | - | - | - | - |
| 1778244677 | 17.78° C | 64% | 1015.9 hPa | - | - | - | - |
| 1778244376 | 17.78° C | 64% | 1015.9 hPa | - | - | - | - |
| 1778242911 | 17.78° C | 63% | 1015.9 hPa | - | - | - | - |
| 1778240162 | 17.78° C | 66% | 1016 hPa | - | - | - | - |
| 1778237754 | 17.78° C | 70% | 1016.2 hPa | - | - | - | - |
| 1778236550 | 17.22° C | 70% | 1016.1 hPa | - | - | - | - |
| 1778234443 | 16.67° C | 74% | 1016.3 hPa | - | - | - | - |
| 1778233239 | 16.67° C | 75% | 1016.3 hPa | - | - | - | - |
| 1778232335 | 16.11° C | 78% | 1016.3 hPa | - | - | - | - |
| 1778229627 | 15° C | 83% | 1016.4 hPa | - | - | - | - |
| 1778228744 | 14.44° C | 84% | 1016.4 hPa | - | - | - | - |
| 1778221821 | 11.67° C | 86% | 1015.9 hPa | - | - | - | - |
| 1778221199 | 11.67° C | 86% | 1015.8 hPa | - | - | - | - |
| 1778220295 | 11.11° C | 86% | 1015.8 hPa | - | - | - | - |
| 1778219693 | 11.11° C | 86% | 1015.8 hPa | - | - | - | - |
| 1778214877 | 10.56° C | 86% | 1015.3 hPa | - | - | - | - |
* Rain since midnight (hover to see other rain measurements)
** Current wind speed in m/s (hover to see current wind gust speed)